sat.trackr.live / text

‹ back to catalog

STARLINK-30229

NORAD 57461 · 2023-107E

PAYLOAD ACTIVE UNKNOWN

§ Identity

Operator
Country
US
Launch date
2023-07-28
Launch site
AFETR
Launch vehicle
Mass (kg)
RCS (m²)

Purposes: comms

External: N2YO · Heavens-Above · Gunter

§ Orbital elements

Epoch: 2026-05-24T19:42:54.471456Z

Period
94.27 min
Inclination
43.0018°
Eccentricity
0.0001945
Mean motion
15.27602853 rev/d
Perigee alt
481.6 km
Apogee alt
484.3 km
Semi-major
6,861.1 km
B*
1.5134e-4
RAAN
273.5588°
Arg perigee
253.3630°
Mean anomaly
106.7009°
Rev number
15,670

§ Raw data

STARLINK-302291 57461U 23107E   26144.82146379  .00003907  00000+0  15134-3 0  99982 57461  43.0018 273.5588 0001945 253.3630 106.7009 15.27602853156701

JSON: /api/v1/satellites/57461 · /tle

For live sub-satellite position, see the globe view (requires WebGL).

§ Visibility from observer

Set your observer location to see the next 7 days of passes ≥ 10°. The values pass through the URL so the page stays shareable.

No JS? Fill the form by hand. The geolocation button needs JavaScript.